| time (UTC) | temp F | wind direction | speed MPH | gust MPH | rain 1hr in | rain 24hr in | rain mn in | humidity % | barometer mb |
| 20260509183056 | 79 | 232 | 9.0 | 21.0 | 0.00 | 0.00 | 0.00 | 32 | 1007.2 |
| 20260509181558 | 79 | 279 | 7.0 | 25.0 | 0.00 | 0.00 | 0.00 | 33 | 1007.5 |
| 20260509180058 | 78 | 276 | 7.0 | 19.0 | 0.00 | 0.00 | 0.00 | 34 | 1007.7 |
| 20260509174549 | 77 | 215 | 14.0 | 22.0 | 0.00 | 0.00 | 0.00 | 35 | 1008.0 |
| 20260509173049 | 78 | 237 | 12.0 | 21.0 | 0.00 | 0.00 | 0.00 | 33 | 1008.1 |
| 20260509171547 | 77 | 253 | 17.0 | 22.0 | 0.00 | 0.00 | 0.00 | 33 | 1008.3 |
| 20260509170043 | 77 | 195 | 13.0 | 22.0 | 0.00 | 0.00 | 0.00 | 32 | 1008.5 |
| 20260509164547 | 76 | 213 | 8.0 | 16.0 | 0.00 | 0.00 | 0.00 | 34 | 1008.6 |
| 20260509163038 | 76 | 18 | 13.0 | 20.0 | 0.00 | 0.00 | 0.00 | 35 | 1009.0 |
| 20260509161536 | 75 | 17 | 9.0 | 21.0 | 0.00 | 0.00 | 0.00 | 37 | 1009.1 |
| 20260509160030 | 74 | 17 | 13.0 | 20.0 | 0.00 | 0.00 | 0.00 | 38 | 1009.3 |
| 20260509154526 | 72 | 19 | 12.0 | 19.0 | 0.00 | 0.00 | 0.00 | 42 | 1009.4 |
| 20260509153023 | 71 | 18 | 16.0 | 21.0 | 0.00 | 0.00 | 0.00 | 43 | 1009.6 |
| 20260509151520 | 69 | 17 | 13.0 | 20.0 | 0.00 | 0.00 | 0.00 | 50 | 1009.7 |
| 20260509150025 | 68 | 360 | 12.0 | 18.0 | 0.00 | 0.00 | 0.00 | 54 | 1009.8 |
| 20260509144511 | 65 | 360 | 12.0 | 17.0 | 0.00 | 0.00 | 0.00 | 57 | 1009.7 |
| 20260509143009 | 64 | 360 | 13.0 | 19.0 | 0.00 | 0.00 | 0.00 | 58 | 1010.0 |
| 20260509141508 | 62 | 360 | 8.0 | 11.0 | 0.00 | 0.00 | 0.00 | 57 | 1010.5 |
| 20260509140105 | 60 | 360 | 7.0 | 11.0 | 0.00 | 0.00 | 0.00 | 60 | 1010.7 |
| 20260509134627 | 59 | 360 | 9.0 | 12.0 | 0.00 | 0.00 | 0.00 | 62 | 1010.8 |
| 20260509133058 | 56 | 360 | 5.0 | 9.0 | 0.00 | 0.00 | 0.00 | 68 | 1011.0 |
| 20260509131555 | 54 | 360 | 4.0 | 6.0 | 0.00 | 0.00 | 0.00 | 73 | 1011.0 |
| 20260509130055 | 51 | 360 | 3.0 | 5.0 | 0.00 | 0.00 | 0.00 | 77 | 1011.0 |
| 20260509124552 | 49 | 360 | 3.0 | 6.0 | 0.00 | 0.00 | 0.00 | 79 | 1010.8 |
| 20260509123053 | 47 | 360 | 4.0 | 5.0 | 0.00 | 0.00 | 0.00 | 80 | 1011.0 |
| 20260509121553 | 47 | 281 | 3.0 | 7.0 | 0.00 | 0.00 | 0.00 | 80 | 1010.9 |
| 20260509120050 | 46 | 360 | 4.0 | 7.0 | 0.00 | 0.00 | 0.00 | 80 | 1010.8 |
| 20260509114551 | 46 | 360 | 3.0 | 5.0 | 0.00 | 0.00 | 0.00 | 80 | 1010.8 |
| 20260509113052 | 46 | 273 | 3.0 | 7.0 | 0.00 | 0.00 | 0.00 | 80 | 1010.8 |
| 20260509111547 | 47 | 270 | 5.0 | 8.0 | 0.00 | 0.00 | 0.00 | 79 | 1010.6 |
| 20260509110047 | 46 | 360 | 3.0 | 7.0 | 0.00 | 0.00 | 0.00 | 79 | 1010.8 |
| 20260509104545 | 47 | 258 | 6.0 | 8.0 | 0.00 | 0.00 | 0.00 | 78 | 1011.0 |
| 20260509103044 | 47 | 229 | 5.0 | 7.0 | 0.00 | 0.00 | 0.00 | 77 | 1010.9 |
| 20260509101550 | 45 | 232 | 4.0 | 7.0 | 0.00 | 0.00 | 0.00 | 77 | 1010.8 |
| 20260509100039 | 46 | 202 | 4.0 | 6.0 | 0.00 | 0.00 | 0.00 | 74 | 1010.5 |
| 20260509094536 | 49 | 188 | 2.0 | 7.0 | 0.00 | 0.00 | 0.00 | 71 | 1010.1 |
| 20260509093035 | 49 | 142 | 4.0 | 7.0 | 0.00 | 0.00 | 0.00 | 71 | 1009.8 |
| 20260509091533 | 49 | 125 | 3.0 | 6.0 | 0.00 | 0.00 | 0.00 | 70 | 1009.8 |
| 20260509090033 | 49 | 122 | 3.0 | 6.0 | 0.00 | 0.00 | 0.00 | 70 | 1009.7 |
| 20260509084531 | 50 | 126 | 3.0 | 4.0 | 0.00 | 0.00 | 0.00 | 70 | 1009.7 |
| 20260509083036 | 49 | 128 | 3.0 | 6.0 | 0.00 | 0.00 | 0.00 | 71 | 1009.9 |
| 20260509081532 | 49 | 124 | 3.0 | 6.0 | 0.00 | 0.00 | 0.00 | 71 | 1010.0 |
| 20260509080026 | 49 | 121 | 3.0 | 4.0 | 0.00 | 0.00 | 0.00 | 71 | 1010.0 |
| 20260509074524 | 50 | 117 | 4.0 | 7.0 | 0.00 | 0.00 | 0.00 | 69 | 1010.0 |
| 20260509073022 | 51 | 360 | 3.0 | 4.0 | 0.00 | 0.00 | 0.00 | 68 | 1010.3 |
| 20260509071520 | 51 | 91 | 3.0 | 4.0 | 0.00 | 0.00 | 0.00 | 69 | 1010.3 |
| 20260509070021 | 51 | 90 | 3.0 | 4.0 | 0.00 | 0.00 | 0.00 | 69 | 1010.6 |
| 20260509064519 | 50 | 84 | 1.0 | 3.0 | 0.00 | 0.00 | 0.00 | 70 | 1010.5 |
| 20260509063016 | 51 | 86 | 2.0 | 4.0 | 0.00 | 0.00 | 0.00 | 68 | 1010.5 |
| 20260509061515 | 51 | 94 | 2.0 | 4.0 | 0.00 | 0.00 | 0.00 | 67 | 1010.5 |
| 20260509060014 | 52 | 79 | 4.0 | 5.0 | 0.00 | 0.00 | 0.00 | 65 | 1010.5 |
| 20260509054508 | 53 | 88 | 3.0 | 6.0 | 0.00 | 0.00 | 0.00 | 63 | 1010.6 |
| 20260509053004 | 55 | 101 | 4.0 | 7.0 | 0.00 | 0.00 | 0.00 | 60 | 1010.5 |
| 20260509051606 | 56 | 80 | 2.0 | 5.0 | 0.00 | 0.00 | 0.00 | 59 | 1010.6 |
| 20260509050107 | 56 | 70 | 5.0 | 8.0 | 0.00 | 0.00 | 0.00 | 60 | 1010.3 |
| 20260509044557 | 54 | 82 | 1.0 | 3.0 | 0.00 | 0.00 | 0.00 | 61 | 1010.6 |
| 20260509043105 | 54 | 82 | 0.0 | 3.0 | 0.00 | 0.00 | 0.00 | 59 | 1010.3 |
| 20260509041557 | 56 | 80 | 2.0 | 3.0 | 0.00 | 0.00 | 0.00 | 56 | 1010.4 |
| 20260509040057 | 57 | 71 | 4.0 | 6.0 | 0.00 | 0.00 | 0.00 | 55 | 1010.0 |
| 20260509034556 | 57 | 87 | 1.0 | 3.0 | 0.00 | 0.00 | 0.00 | 54 | 1010.1 |
| 20260509033056 | 57 | 88 | 3.0 | 4.0 | 0.00 | 0.00 | 0.00 | 54 | 1009.8 |
| 20260509031555 | 59 | 138 | 2.0 | 7.0 | 0.00 | 0.00 | 0.00 | 50 | 1009.7 |
| 20260509030054 | 63 | 109 | 4.0 | 10.0 | 0.00 | 0.00 | 0.00 | 44 | 1009.3 |
| 20260509024553 | 63 | 71 | 7.0 | 10.0 | 0.00 | 0.00 | 0.00 | 43 | 1009.0 |
| 20260509023052 | 64 | 55 | 8.0 | 10.0 | 0.00 | 0.00 | 0.00 | 42 | 1008.9 |
| 20260509021552 | 66 | 15 | 7.0 | 9.0 | 0.00 | 0.00 | 0.00 | 40 | 1008.8 |
| 20260509020051 | 69 | 10 | 8.0 | 14.0 | 0.00 | 0.00 | 0.00 | 35 | 1008.5 |
| 20260509014551 | 70 | 10 | 9.0 | 11.0 | 0.00 | 0.00 | 0.00 | 34 | 1008.5 |
| 20260509013055 | 72 | 10 | 8.0 | 11.0 | 0.00 | 0.00 | 0.00 | 34 | 1008.3 |
| 20260509011550 | 75 | 11 | 5.0 | 8.0 | 0.00 | 0.00 | 0.00 | 30 | 1008.2 |
| 20260509010049 | 76 | 57 | 7.0 | 12.0 | 0.00 | 0.00 | 0.00 | 28 | 1008.2 |
| 20260509004558 | 78 | 64 | 11.0 | 15.0 | 0.00 | 0.00 | 0.00 | 27 | 1008.1 |
| 20260509003048 | 79 | 67 | 10.0 | 15.0 | 0.00 | 0.00 | 0.00 | 26 | 1008.1 |
| 20260509001552 | 80 | 36 | 10.0 | 14.0 | 0.00 | 0.00 | 0.00 | 25 | 1008.0 |
| 20260509000047 | 80 | 34 | 1.0 | 11.0 | 0.00 | 0.00 | 0.00 | 25 | 1007.9 |
| 20260508234546 | 81 | 40 | 8.0 | 15.0 | 0.00 | 0.00 | 0.00 | 26 | 1007.9 |
| 20260508233046 | 81 | 34 | 11.0 | 15.0 | 0.00 | 0.00 | 0.00 | 25 | 1007.8 |
| 20260508231545 | 82 | 26 | 3.0 | 19.0 | 0.00 | 0.00 | 0.00 | 25 | 1007.8 |
| 20260508230044 | 81 | 46 | 11.0 | 18.0 | 0.00 | 0.00 | 0.00 | 25 | 1007.8 |
| 20260508224549 | 82 | 34 | 10.0 | 17.0 | 0.00 | 0.00 | 0.00 | 25 | 1007.9 |
| 20260508223048 | 82 | 43 | 10.0 | 17.0 | 0.00 | 0.00 | 0.00 | 26 | 1008.0 |
| 20260508221540 | 83 | 57 | 13.0 | 22.0 | 0.00 | 0.00 | 0.00 | 26 | 1008.0 |
| 20260508220038 | 82 | 51 | 13.0 | 19.0 | 0.00 | 0.00 | 0.00 | 26 | 1008.4 |
| 20260508214553 | 81 | 39 | 14.0 | 23.0 | 0.00 | 0.00 | 0.00 | 28 | 1008.6 |
| 20260508213136 | 82 | 23 | 13.0 | 20.0 | 0.00 | 0.00 | 0.00 | 27 | 1008.6 |
| 20260508211534 | 81 | 298 | 11.0 | 24.0 | 0.00 | 0.00 | 0.00 | 27 | 1008.8 |
| 20260508210037 | 82 | 5 | 9.0 | 22.0 | 0.00 | 0.00 | 0.00 | 28 | 1009.0 |
| 20260508204535 | 82 | 13 | 13.0 | 21.0 | 0.00 | 0.00 | 0.00 | 29 | 1008.9 |
| 20260508203029 | 81 | 9 | 7.0 | 25.0 | 0.00 | 0.00 | 0.00 | 29 | 1009.3 |
| 20260508201527 | 81 | 9 | 10.0 | 25.0 | 0.00 | 0.00 | 0.00 | 29 | 1009.4 |
| 20260508200026 | 81 | 12 | 12.0 | 24.0 | 0.00 | 0.00 | 0.00 | 31 | 1009.6 |
| 20260508194524 | 80 | 10 | 11.0 | 22.0 | 0.00 | 0.00 | 0.00 | 30 | 1009.6 |
| 20260508193023 | 81 | 9 | 13.0 | 24.0 | 0.00 | 0.00 | 0.00 | 29 | 1009.7 |
| 20260508191524 | 81 | 11 | 13.0 | 26.0 | 0.00 | 0.00 | 0.00 | 31 | 1009.7 |
| 20260508190038 | 80 | 11 | 12.0 | 26.0 | 0.00 | 0.00 | 0.00 | 31 | 1009.9 |
| 20260508184528 | 80 | 11 | 13.0 | 24.0 | 0.00 | 0.00 | 0.00 | 31 | 1010.0 |